Tiempo cada hora Al Khums

Hoy, 30 Julio, Viernes

Tiempo Temperatura Precipitaciones Viento Presión Humedad
00:00 +27°C° 0 mm 1 mps 759 mmHg 66%
01:00 +27°C° 0 mm 1 mps 759 mmHg 65%
02:00 +27°C° 0 mm 1 mps 758 mmHg 65%
03:00 +27°C° 0 mm 1 mps 758 mmHg 65%
04:00 +24°C° 0 mm 0 mps 758 mmHg 65%
05:00 +26°C° 0 mm 0 mps 758 mmHg 59%
06:00 +27°C° 0 mm 0 mps 758 mmHg 53%
07:00 +29°C° 0 mm 0 mps 759 mmHg 46%
08:00 +32°C° 0 mm 1 mps 759 mmHg 40%
09:00 +34°C° 0 mm 1 mps 759 mmHg 34%
10:00 +36°C° 0 mm 1 mps 759 mmHg 28%
11:00 +38°C° 0 mm 2 mps 759 mmHg 27%
12:00 +38°C° 0 mm 3 mps 759 mmHg 26%
13:00 +40°C° 0 mm 4 mps 758 mmHg 26%
14:00 +38°C° 0 mm 4 mps 758 mmHg 28%
15:00 +37°C° 0 mm 4 mps 758 mmHg 31%
16:00 +37°C° 0 mm 5 mps 758 mmHg 33%
17:00 +35°C° 0 mm 4 mps 758 mmHg 41%
18:00 +33°C° 0 mm 4 mps 758 mmHg 49%
19:00 +30°C° 0 mm 3 mps 758 mmHg 56%
20:00 +30°C° 0 mm 3 mps 758 mmHg 57%
21:00 +29°C° 0 mm 3 mps 758 mmHg 58%
22:00 +29°C° 0 mm 2 mps 758 mmHg 59%
23:00 +29°C° 0 mm 3 mps 758 mmHg 54%

Mañana, 31 Julio, Sábado

Tiempo Temperatura Precipitaciones Viento Presión Humedad
00:00 +29°C° 0 mm 3 mps 758 mmHg 49%
01:00 +30°C° 0 mm 4 mps 757 mmHg 44%
02:00 +30°C° 0 mm 4 mps 757 mmHg 42%
03:00 +30°C° 0 mm 4 mps 757 mmHg 40%
04:00 +30°C° 0 mm 4 mps 756 mmHg 39%
05:00 +32°C° 0 mm 4 mps 757 mmHg 35%
06:00 +33°C° 0 mm 4 mps 757 mmHg 31%
07:00 +34°C° 0 mm 3 mps 757 mmHg 27%
08:00 +36°C° 0 mm 3 mps 757 mmHg 24%
09:00 +38°C° 0 mm 2 mps 757 mmHg 21%
10:00 +41°C° 0 mm 2 mps 757 mmHg 18%
11:00 +42°C° 0 mm 3 mps 757 mmHg 18%
12:00 +42°C° 0 mm 4 mps 757 mmHg 19%
13:00 +42°C° 0 mm 5 mps 756 mmHg 20%
14:00 +41°C° 0 mm 4 mps 756 mmHg 22%
15:00 +41°C° 0 mm 4 mps 756 mmHg 24%
16:00 +40°C° 0 mm 4 mps 756 mmHg 26%
17:00 +37°C° 0 mm 3 mps 756 mmHg 31%
18:00 +35°C° 0 mm 3 mps 756 mmHg 36%
19:00 +34°C° 0 mm 2 mps 756 mmHg 41%
20:00 +32°C° 0 mm 2 mps 756 mmHg 39%
21:00 +33°C° 0 mm 3 mps 756 mmHg 37%
22:00 +33°C° 0 mm 3 mps 757 mmHg 35%
23:00 +33°C° 0 mm 3 mps 756 mmHg 34%

Pasado mañana, 1 Agosto, Domingo

Tiempo Temperatura Precipitaciones Viento Presión Humedad
00:00 +33°C° 0 mm 3 mps 756 mmHg 32%
01:00 +33°C° 0 mm 4 mps 756 mmHg 30%
02:00 +33°C° 0 mm 4 mps 756 mmHg 30%
03:00 +33°C° 0 mm 3 mps 755 mmHg 29%
04:00 +31°C° 0 mm 3 mps 755 mmHg 29%
05:00 +34°C° 0 mm 3 mps 755 mmHg 27%
06:00 +35°C° 0 mm 3 mps 756 mmHg 25%
07:00 +36°C° 0 mm 3 mps 756 mmHg 23%
08:00 +38°C° 0 mm 2 mps 756 mmHg 20%
09:00 +40°C° 0 mm 2 mps 756 mmHg 18%
10:00 +42°C° 0 mm 2 mps 756 mmHg 16%
11:00 +43°C° 0 mm 3 mps 756 mmHg 17%
12:00 +42°C° 0 mm 3 mps 756 mmHg 18%
13:00 +42°C° 0 mm 4 mps 756 mmHg 19%
14:00 +42°C° 0 mm 4 mps 756 mmHg 20%
15:00 +41°C° 0 mm 4 mps 755 mmHg 21%
16:00 +41°C° 0 mm 4 mps 755 mmHg 22%
17:00 +38°C° 0 mm 4 mps 755 mmHg 26%
18:00 +36°C° 0 mm 3 mps 755 mmHg 29%
19:00 +35°C° 0 mm 3 mps 755 mmHg 32%
20:00 +34°C° 0 mm 3 mps 756 mmHg 32%
21:00 +34°C° 0 mm 3 mps 756 mmHg 32%
22:00 +33°C° 0 mm 3 mps 756 mmHg 31%
23:00 +32°C° 0 mm 2 mps 756 mmHg 31%

2 Agosto, Lunes

Tiempo Temperatura Precipitaciones Viento Presión Humedad
00:00 +32°C° 0 mm 2 mps 756 mmHg 31%
01:00 +31°C° 0 mm 2 mps 756 mmHg 31%
02:00 +31°C° 0 mm 2 mps 756 mmHg 31%
03:00 +31°C° 0 mm 2 mps 756 mmHg 31%
04:00 +31°C° 0 mm 2 mps 756 mmHg 31%
05:00 +32°C° 0 mm 2 mps 756 mmHg 30%
06:00 +34°C° 0 mm 2 mps 756 mmHg 29%
07:00 +35°C° 0 mm 2 mps 756 mmHg 28%
08:00 +36°C° 0 mm 3 mps 757 mmHg 27%
09:00 +38°C° 0 mm 3 mps 757 mmHg 25%
10:00 +40°C° 0 mm 3 mps 757 mmHg 23%
11:00 +41°C° 0 mm 4 mps 757 mmHg 24%
12:00 +41°C° 0 mm 5 mps 757 mmHg 24%
13:00 +41°C° 0 mm 6 mps 757 mmHg 25%
14:00 +41°C° 0 mm 5 mps 757 mmHg 27%
15:00 +40°C° 0 mm 5 mps 756 mmHg 29%
16:00 +38°C° 0 mm 4 mps 756 mmHg 31%
17:00 +36°C° 0 mm 4 mps 757 mmHg 39%
18:00 +34°C° 0 mm 4 mps 757 mmHg 47%
19:00 +32°C° 0 mm 4 mps 757 mmHg 56%
20:00 +31°C° 0 mm 3 mps 757 mmHg 60%
21:00 +30°C° 0 mm 3 mps 758 mmHg 63%
22:00 +29°C° 0 mm 2 mps 758 mmHg 67%
23:00 +29°C° 0 mm 2 mps 758 mmHg 68%

3 Agosto, Martes

Tiempo Temperatura Precipitaciones Viento Presión Humedad
00:00 +29°C° 0 mm 2 mps 758 mmHg 68%
01:00 +28°C° 0 mm 2 mps 757 mmHg 68%
02:00 +28°C° 0 mm 2 mps 757 mmHg 68%
03:00 +28°C° 0 mm 1 mps 757 mmHg 68%
04:00 +28°C° 0 mm 1 mps 757 mmHg 67%
05:00 +29°C° 0 mm 1 mps 757 mmHg 60%
06:00 +30°C° 0 mm 2 mps 758 mmHg 53%
07:00 +32°C° 0 mm 2 mps 758 mmHg 46%
08:00 +35°C° 0 mm 2 mps 758 mmHg 39%
09:00 +38°C° 0 mm 2 mps 758 mmHg 32%
10:00 +40°C° 0 mm 3 mps 758 mmHg 25%
11:00 +41°C° 0 mm 4 mps 758 mmHg 26%
12:00 +42°C° 0 mm 5 mps 758 mmHg 27%
13:00 +42°C° 0 mm 6 mps 757 mmHg 28%
14:00 +41°C° 0 mm 6 mps 757 mmHg 31%
15:00 +39°C° 0 mm 6 mps 757 mmHg 35%
16:00 +37°C° 0 mm 5 mps 757 mmHg 39%
17:00 +35°C° 0 mm 5 mps 757 mmHg 47%
18:00 +34°C° 0 mm 4 mps 757 mmHg 55%
19:00 +31°C° 0 mm 3 mps 757 mmHg 63%
20:00 +30°C° 0 mm 3 mps 758 mmHg 64%
21:00 +30°C° 0 mm 2 mps 758 mmHg 66%
22:00 +29°C° 0 mm 1 mps 758 mmHg 67%
23:00 +29°C° 0 mm 1 mps 758 mmHg 66%

4 Agosto, Miércoles

Tiempo Temperatura Precipitaciones Viento Presión Humedad
00:00 +29°C° 0 mm 1 mps 758 mmHg 65%
01:00 +29°C° 0 mm 1 mps 758 mmHg 64%
02:00 +29°C° 0 mm 1 mps 758 mmHg 62%
03:00 +29°C° 0 mm 1 mps 757 mmHg 60%
04:00 +29°C° 0 mm 1 mps 757 mmHg 57%
05:00 +30°C° 0 mm 2 mps 758 mmHg 53%
06:00 +31°C° 0 mm 2 mps 758 mmHg 48%
07:00 +34°C° 0 mm 2 mps 758 mmHg 44%
08:00 +36°C° 0 mm 3 mps 758 mmHg 37%
09:00 +38°C° 0 mm 3 mps 758 mmHg 31%
10:00 +42°C° 0 mm 4 mps 758 mmHg 24%
11:00 +42°C° 0 mm 4 mps 758 mmHg 24%
12:00 +43°C° 0 mm 5 mps 758 mmHg 23%
13:00 +45°C° 0 mm 6 mps 758 mmHg 23%
14:00 +44°C° 0 mm 6 mps 757 mmHg 26%
15:00 +42°C° 0 mm 6 mps 757 mmHg 28%
16:00 +41°C° 0 mm 6 mps 757 mmHg 31%
17:00 +38°C° 0 mm 6 mps 757 mmHg 41%
18:00 +35°C° 0 mm 5 mps 758 mmHg 51%
19:00 +32°C° 0 mm 5 mps 758 mmHg 61%
20:00 +32°C° 0 mm 5 mps 758 mmHg 60%
21:00 +32°C° 0 mm 4 mps 758 mmHg 59%
22:00 +30°C° 0 mm 4 mps 758 mmHg 58%
23:00 +30°C° 0 mm 3 mps 758 mmHg 54%
Mostrar más

Necesitamos Su Consentimiento

Meteoprog y nuestros Proveedores de Servicios pueden almacenar y acceder a sus datos personales como cookies, identificadores de dispositivo u otras tecnologías similares de su dispositivo y procesar dichos datos para personalizar contenido y anuncios, además de ofrecer funciones de redes sociales y analizar el tráfico.

  • Almacenar y/o acceder a información en su dispositivo

    Se puede almacenar o acceder a cookies, identificadores de dispositivo u otra información de su dispositivo para los fines anteriormente indicados.

  • Anuncios y contenido personalizados, medición de anuncios y contenido, percepciones del público, y desarrollo de productos

    Los anuncios y el contenido pueden personalizarse en base a su perfil. Se pueden añadir más datos para personalizar mejor los anuncios y contenidos. Se puede medir el rendimiento de los anuncios y contenidos. Se puede obtener la percepción sobre el público que ha visto los anuncios y contenidos. Dichos datos pueden usarse para desarrollar o mejorar la experiencia del usuario, sistemas y software.

Al hacer clic en ‘Estoy De Acuerdo’ usted permitirá el uso de las cookies, identificadores de dispositivo, balizas web u otras tecnologías similares indicadas. Su configuración puede cambiarse desde el navegador de su dispositivo.

Para ciertos fines, los intereses legítimos pueden ser considerados por encima del consentimiento. Puede leer más sobre ello en nuestra Política de Privacidad y Cookies.